Dewpoint
41 41 41 41 40 40 40 39 38 37 37 38 39 40 39 40 40 40 40 38 37 37 38 39 39 39 39 41 41 41 41 41 41 41 41 41 41 41 41 40 40 40 40 40 39 39 38 38 37 37 37 37 37 37 37 37 38 38 38 39 39 39 40 40 41 41 41 41 41 41 41 41 41 41 40 41 41 41 41 41 41 41 41 41 41 42
40 40 40 40 39 38 38 38 37 37 38 38 38 39 39 39 38 37 37 37 36 36 37 38 38 38 37 40 40 40 40 40 40 40 40 40 40 40 40 40 40 40 39 39 38 38 37 37 37 37 37 37 37 36 36 37 37 37 37 37 37 37 38 38 39 39 40 40 40 40 40 40 40 40 40 40 40 40 40 40 40 41 41 41 41 41
38 38 39 39 38 38 37 37 37 37 37 37 37 37 37 37 36 35 35 35 35 35 35 36 36 37 36 38 39 39 38 39 39 39 39 39 39 39 39 39 39 39 38 38 37 37 37 36 36 36 36 36 36 35 35 35 35 35 35 35 35 36 36 36 37 37 37 38 38 39 39 39 39 39 39 39 40 40 40 40 40 40 40 40 41 41
37 37 37 37 37 37 37 37 37 37 37 37 37 35 35 35 34 33 33 32 32 33 33 33 33 34 34 36 37 38 37 38 38 38 38 38 38 38 38 38 38 38 37 37 36 36 36 36 35 35 35 35 35 35 34 34 34 34 34 34 34 34 34 34 34 34 35 35 36 37 37 38 38 38 38 39 39 39 39 39 39 39 40 40 40 40
35 35 36 36 36 36 36 36 36 36 37 36 34 33 33 32 32 32 32 31 31 32 32 32 32 32 33 34 36 37 37 37 37 37 37 37 37 37 37 37 37 37 36 36 36 35 35 35 35 34 34 34 34 34 34 33 33 33 33 33 33 33 32 32 32 32 33 33 34 35 36 37 37 37 38 38 38 38 39 39 39 39 39 39 40 40
34 34 35 35 35 35 34 35 36 36 36 33 32 31 31 31 32 32 32 32 32 32 32 31 31 30 31 33 36 37 37 36 35 36 36 36 36 36 36 36 36 35 35 35 34 34 34 34 34 34 33 33 33 33 33 33 32 32 32 32 32 32 32 32 32 32 32 32 32 32 34 35 36 36 37 37 37 37 38 38 39 39 39 39 39 39
33 33 33 33 33 34 33 34 35 35 33 32 31 31 31 31 31 30 30 31 31 31 30 30 29 28 28 31 35 37 35 35 35 35 35 34 34 34 34 34 34 34 33 33 33 33 32 32 32 32 32 32 32 32 32 32 32 32 32 32 32 32 32 32 32 32 32 32 32 32 32 33 34 35 36 36 36 37 37 38 38 38 39 39 38 38
32 32 32 32 32 32 32 32 33 33 32 31 31 31 32 31 31 29 28 28 28 27 27 27 26 25 24 25 28 31 31 31 32 33 33 34 34 33 32 32 32 32 32 32 31 31 31 31 32 32 32 32 32 32 32 32 32 32 32 32 32 32 32 32 32 32 32 32 32 32 32 32 32 33 34 35 35 36 36 37 37 37 38 38 38 38
31 31 31 31 31 31 32 32 31 31 30 30 30 30 30 30 30 29 28 27 27 26 25 24 24 23 23 22 23 27 30 30 30 30 31 31 32 32 33 33 33 32 30 30 30 30 30 30 31 31 31 32 32 32 32 32 32 32 31 31 31 31 31 32 32 32 32 32 32 32 32 32 32 32 33 34 34 35 35 36 36 37 37 37 37 37
30 30 31 30 30 30 30 31 30 29 28 29 28 28 28 27 28 28 28 28 27 26 25 24 23 23 23 22 23 25 28 30 31 32 34 31 32 34 34 35 34 32 30 30 29 29 29 30 30 31 31 31 31 31 31 31 31 31 30 30 30 31 31 31 32 32 32 32 32 32 32 32 32 32 32 33 33 34 34 35 35 36 36 37 37 37
29 29 29 29 30 30 29 29 29 28 27 28 27 25 25 25 26 26 27 26 26 25 24 24 24 23 23 23 23 25 25 25 26 28 32 31 32 33 33 33 32 31 30 29 29 29 29 29 29 29 30 30 30 30 30 30 30 30 29 30 30 30 31 31 31 32 32 32 32 32 32 32 32 32 32 32 33 33 33 34 34 35 35 36 36 37
29 28 28 28 29 29 28 28 28 28 27 27 25 24 23 23 24 24 25 24 24 23 23 23 23 23 23 23 23 24 23 23 23 23 23 24 27 28 29 28 29 30 29 31 31 31 30 29 29 28 28 28 29 29 29 29 29 29 29 29 30 30 31 31 31 31 31 32 32 32 32 32 32 32 32 32 32 32 33 33 33 34 34 35 35 36
28 28 28 28 28 28 27 27 27 27 26 25 24 23 23 23 23 23 23 23 23 23 23 23 23 23 23 23 23 24 23 23 22 22 22 21 22 23 23 24 24 25 25 26 27 28 31 30 29 29 29 30 30 29 28 29 29 28 28 29 30 30 30 31 31 31 32 32 32 32 32 32 32 32 32 32 32 32 32 32 32 33 33 34 34 34
27 27 27 27 26 26 25 25 25 24 23 23 23 23 23 23 23 23 23 23 23 23 22 22 22 22 23 23 23 23 23 22 22 21 20 20 21 22 22 23 23 23 23 22 22 25 31 29 27 26 30 32 32 31 31 30 29 28 29 29 30 30 30 31 31 31 32 32 32 32 32 32 32 32 32 32 32 32 32 32 32 32 32 33 33 33
26 26 26 25 25 24 24 23 23 23 23 23 23 23 23 23 23 22 22 21 21 21 21 21 20 20 23 23 23 23 22 21 20 20 19 19 19 20 21 21 22 23 23 22 21 23 28 26 23 23 26 29 30 31 31 32 31 29 29 30 30 31 31 31 31 31 32 32 32 32 32 32 32 32 32 32 32 32 32 32 32 32 32 32 32 32
25 25 25 24 23 23 23 23 23 23 23 23 23 23 23 22 22 22 21 21 21 20 20 20 19 19 21 23 24 24 22 21 20 20 19 19 19 19 20 20 21 22 22 22 21 21 22 21 22 23 24 28 29 29 28 29 30 30 30 30 31 31 32 32 32 32 32 32 32 32 32 32 32 32 32 32 32 32 32 32 33 33 33 32 32 32
23 24 23 23 23 23 23 23 23 23 22 22 22 22 22 22 21 21 21 20 20 20 20 19 19 18 19 21 23 23 23 21 20 20 20 20 20 20 20 20 20 21 22 22 22 21 21 21 21 22 24 30 30 29 28 28 29 30 30 31 31 32 32 32 32 32 32 32 32 32 32 32 32 32 32 32 32 32 32 32 33 33 33 33 34 34
23 23 23 23 23 23 22 23 22 21 21 22 22 21 21 20 20 20 20 20 20 19 19 18 18 18 17 18 19 21 23 21 20 20 20 20 20 20 20 21 21 22 22 22 22 21 21 21 21 22 25 28 29 28 28 29 30 30 31 31 31 32 32 32 32 32 32 32 32 32 32 32 32 32 32 32 32 32 32 32 32 33 33 34 35 35
23 23 23 23 22 22 22 22 22 22 22 22 22 22 21 21 20 20 19 19 19 19 18 18 17 17 18 18 19 20 22 21 21 20 19 19 19 19 19 22 23 23 21 22 22 22 21 20 23 28 32 29 28 28 28 29 30 30 30 31 31 31 32 32 32 32 32 32 32 32 32 32 32 32 33 32 32 32 32 32 32 32 33 34 34 35
23 22 22 22 22 21 21 23 23 24 23 23 23 22 21 20 19 19 19 19 18 18 18 18 18 18 18 19 20 21 21 21 21 20 19 19 19 19 19 21 21 21 20 20 20 20 20 20 21 24 30 29 28 28 28 28 29 30 30 30 31 31 31 31 32 32 32 32 32 32 32 32 32 32 32 33 33 32 32 32 32 32 33 33 34 34
22 22 22 21 22 22 23 23 24 25 27 25 22 20 20 19 19 19 19 19 18 18 17 18 18 19 19 19 21 21 20 21 21 20 19 18 19 19 19 19 19 19 19 20 20 20 20 20 20 22 29 29 28 28 28 28 29 29 30 30 30 30 30 31 32 32 32 32 32 32 32 32 33 33 33 33 33 33 33 32 32 32 32 33 33 33
23 23 21 21 22 24 26 24 25 27 27 23 22 22 21 19 19 19 19 19 19 19 20 20 20 20 21 21 23 23 20 22 22 20 19 18 19 19 19 19 19 19 19 19 19 19 20 20 21 23 28 29 28 27 27 28 28 29 29 29 29 30 30 31 31 32 32 32 32 32 32 33 33 33 33 33 33 33 33 33 33 32 32 33 33 33
24 23 22 22 23 24 26 24 24 25 26 24 24 23 22 21 20 20 19 20 20 20 21 21 21 21 21 23 23 23 23 23 22 21 19 19 19 19 19 19 19 19 18 19 19 19 20 21 21 23 28 28 28 27 27 28 28 28 29 28 29 29 30 31 31 32 32 32 32 32 32 32 32 33 33 33 33 34 34 34 34 33 33 33 33 33
24 23 23 23 23 23 24 23 23 23 24 23 23 22 20 21 22 22 22 21 21 20 20 20 20 20 20 22 23 23 22 23 22 21 20 19 19 19 19 18 18 18 19 19 19 20 20 21 20 21 24 27 28 28 28 28 28 28 28 28 28 29 30 30 31 31 31 31 31 31 31 31 32 32 32 32 33 34 34 35 35 35 34 34 34 34
25 25 26 26 27 27 26 26 26 26 25 23 23 23 23 25 26 25 23 21 21 20 19 19 19 19 19 22 22 20 19 19 20 21 20 19 18 18 18 18 17 17 18 19 19 19 19 20 20 21 22 24 26 28 28 28 28 28 28 28 28 29 29 30 30 31 31 31 31 31 31 31 31 31 31 32 32 32 33 34 35 35 35 35 35 35
29 30 30 31 32 32 32 32 32 31 30 28 26 25 25 25 25 23 22 21 21 20 19 17 16 16 17 18 18 19 19 19 20 20 20 19 18 18 18 18 18 18 19 19 20 20 20 21 21 21 21 22 26 29 29 29 28 28 28 28 28 29 29 30 30 31 31 31 31 31 31 31 31 31 31 31 32 32 32 33 34 34 35 36 36 36
32 32 32 32 32 32 32 32 32 32 32 32 30 28 27 24 23 22 21 20 20 19 19 16 15 15 16 16 17 17 18 21 21 20 19 19 18 18 18 18 18 19 19 19 20 22 24 24 23 23 22 21 24 28 30 29 28 28 27 28 28 28 29 29 30 30 30 30 30 30 30 30 30 31 31 31 31 31 32 32 32 33 34 35 35 36
30 30 30 30 30 30 30 31 31 31 31 32 32 32 30 25 23 21 20 19 19 19 18 17 16 16 16 16 17 17 17 19 21 21 19 19 19 18 18 18 18 18 19 19 21 23 25 24 23 22 21 21 23 25 28 30 30 29 28 28 28 28 28 28 28 28 28 29 29 29 30 30 30 30 30 31 31 31 31 32 32 32 33 34 34 35
29 29 29 29 29 29 29 30 30 30 30 31 31 31 30 26 23 22 20 19 19 19 19 19 18 17 16 16 16 17 17 18 19 21 20 19 18 17 17 17 17 17 18 18 19 19 20 20 19 19 19 23 24 24 25 28 29 29 29 29 29 29 28 28 27 27 28 28 28 29 29 29 29 30 30 30 30 31 31 31 31 32 31 32 33 33
27 27 27 28 29 28 28 29 30 31 31 30 30 30 29 26 24 22 21 20 20 19 19 19 19 18 16 16 15 16 16 16 19 20 19 19 18 17 16 17 17 17 17 17 16 16 16 19 19 19 20 23 24 23 21 24 25 26 26 28 28 29 29 28 28 27 27 28 28 28 28 28 28 29 29 29 30 30 31 31 31 31 30 31 32 32
23 25 25 25 25 25 26 26 28 29 29 30 31 30 28 25 23 21 21 21 20 19 19 19 19 19 18 16 15 14 14 16 20 22 19 19 18 17 16 17 16 16 16 16 16 14 15 17 19 21 21 21 22 22 23 23 23 23 23 24 25 28 31 30 29 28 28 28 27 27 27 28 28 28 28 29 29 30 30 30 30 30 30 30 30 30
22 23 23 23 22 22 23 23 24 24 24 26 27 28 27 25 23 22 21 20 20 19 19 18 18 18 18 18 16 16 15 16 20 23 20 19 18 17 15 16 16 16 16 17 16 15 14 16 18 19 19 20 20 21 23 24 23 23 23 23 23 25 30 30 30 29 28 28 28 27 27 27 28 28 28 28 28 29 29 30 30 30 30 30 29 29
21 21 21 21 20 20 21 21 21 21 22 22 23 23 24 25 25 24 22 21 20 20 19 18 18 17 17 17 17 17 17 17 21 25 24 19 18 17 15 16 15 15 16 16 16 14 14 14 16 18 18 19 20 21 22 23 24 23 23 22 22 22 26 28 28 28 28 28 28 28 28 28 28 28 28 28 28 28 29 29 29 30 30 29 29 29
20 20 20 19 19 18 19 18 18 19 20 21 22 22 22 22 24 25 23 22 21 20 19 19 18 17 17 16 16 17 18 18 23 27 26 20 18 17 15 15 15 15 14 15 15 14 14 14 15 16 18 19 20 21 21 22 23 23 20 21 21 21 23 23 24 25 26 27 26 26 27 27 28 28 28 28 28 28 29 29 29 30 30 30 30 29
19 19 19 18 17 17 17 17 17 18 20 20 21 22 22 21 21 22 23 22 21 20 19 19 19 19 18 17 17 17 18 18 22 27 26 21 19 17 16 15 15 15 15 14 14 14 14 14 16 18 18 19 19 19 20 20 20 21 19 21 21 20 20 21 22 23 23 24 23 23 23 23 25 27 28 28 29 29 29 29 29 30 30 30 30 30
18 18 18 16 16 17 17 18 18 19 19 19 19 20 21 20 19 19 20 21 22 22 22 20 20 19 19 19 18 18 18 18 21 25 26 21 19 18 17 17 17 16 16 15 14 14 13 15 17 19 19 18 18 18 19 19 19 20 20 21 21 21 20 21 21 21 21 22 22 22 22 23 23 25 27 29 29 29 29 29 29 29 30 30 30 30
17 17 17 16 15 16 17 17 17 17 17 17 17 18 19 19 19 19 19 18 19 21 23 23 23 22 22 20 19 19 19 19 20 22 24 21 19 19 17 17 18 19 16 16 15 15 15 16 17 18 18 17 16 16 18 19 19 19 19 20 20 20 20 20 21 21 19 21 22 23 23 23 24 26 27 29 29 28 29 29 29 29 29 29 29 30
17 17 17 15 15 14 15 15 15 15 16 16 16 17 18 17 17 18 18 16 16 17 19 20 21 23 25 24 22 19 19 18 18 19 20 19 19 19 18 17 19 19 18 17 16 16 16 16 16 16 16 15 16 18 19 19 19 18 18 19 20 20 19 19 20 20 20 21 23 24 26 26 25 24 25 26 26 26 25 26 28 29 30 29 29 29
16 16 16 16 16 15 14 14 14 15 16 16 17 17 17 17 17 18 17 16 16 16 17 18 19 19 19 20 22 23 22 19 15 14 14 15 17 19 19 18 18 17 18 17 16 16 16 15 15 15 15 15 16 17 18 17 17 17 17 18 19 19 19 19 20 20 21 21 22 24 24 23 22 22 21 22 22 23 23 23 25 27 28 27 28 28
16 16 16 19 19 17 14 15 15 15 16 18 19 19 19 19 19 18 18 18 19 18 16 15 16 18 18 20 22 23 23 20 19 17 13 13 15 17 19 19 18 18 17 15 15 15 16 15 16 16 17 16 17 17 17 17 17 19 20 20 19 19 21 21 20 19 20 19 19 20 21 20 20 20 21 21 21 21 21 21 22 24 26 24 22 22
18 17 17 19 20 20 19 19 19 18 18 18 18 18 18 18 18 17 17 18 19 19 19 19 18 17 16 15 15 17 19 19 19 19 14 14 14 16 19 19 19 18 17 16 15 16 17 16 16 17 17 18 18 19 19 19 20 21 22 20 19 19 21 23 22 21 19 18 18 19 21 22 23 23 22 23 22 21 21 21 20 21 24 22 21 19
21 20 19 19 19 19 18 18 18 19 19 18 17 17 17 17 17 17 17 17 17 17 17 17 17 16 15 15 14 14 14 16 18 19 17 15 15 16 17 19 19 19 18 17 16 16 18 18 18 18 18 18 19 19 19 19 20 21 22 20 20 20 22 22 19 17 17 17 17 18 22 22 22 21 22 22 20 20 23 21 22 24 26 23 20 19
22 21 20 19 18 17 18 19 19 19 18 16 16 16 17 18 18 18 18 16 16 16 18 17 17 16 15 14 14 14 14 13 14 17 19 16 15 15 17 18 19 19 19 18 18 18 18 19 20 19 19 19 19 19 19 19 19 20 20 21 21 20 20 19 17 15 16 18 19 18 19 19 20 20 21 22 22 21 22 24 26 28 28 25 22 20
22 21 19 18 18 18 19 18 17 16 16 15 15 16 16 17 18 19 19 16 16 17 17 15 14 14 14 14 14 14 14 14 13 14 18 20 19 17 18 17 17 18 19 19 19 19 19 20 20 20 20 20 20 20 19 19 19 19 19 21 21 21 19 19 19 19 19 20 20 19 18 19 19 19 20 20 20 20 21 21 21 22 25 24 23 21
20 20 19 19 19 19 18 17 17 16 16 15 15 15 16 16 18 19 18 16 16 17 16 15 15 14 14 13 13 14 13 14 14 15 16 21 24 24 20 18 17 18 19 20 20 20 20 19 19 19 20 20 20 20 19 19 19 19 20 21 21 21 19 20 20 20 19 19 19 19 18 19 19 19 19 19 19 19 19 19 20 20 21 22 22 22
21 21 21 21 20 20 20 19 18 17 16 16 16 16 16 16 16 17 19 17 16 16 14 14 15 16 15 15 14 13 13 14 15 17 18 19 20 22 23 21 20 20 20 20 19 20 21 20 19 19 20 20 20 20 20 20 19 19 19 20 21 20 20 20 20 19 19 19 19 19 18 18 18 18 19 19 19 19 19 19 20 20 20 21 21 22
20 20 20 20 20 20 20 19 18 17 16 16 16 16 17 16 16 17 17 17 16 16 16 15 15 15 16 15 14 14 14 14 14 15 17 19 20 21 21 22 22 22 21 21 20 21 22 22 21 21 20 20 19 19 19 20 20 20 20 20 20 20 19 19 19 19 18 19 19 18 17 18 19 19 19 20 20 19 19 20 20 20 21 22 22 22
22 21 21 21 20 19 19 19 18 17 16 16 16 16 17 17 17 17 16 16 16 17 18 15 14 15 15 15 15 15 16 16 16 16 17 18 19 20 21 21 22 22 23 23 23 23 23 23 23 22 22 21 20 19 19 19 20 20 20 20 20 20 20 19 19 18 18 18 17 16 17 18 18 19 19 19 20 20 19 20 20 21 22 22 23 23
22 22 21 21 20 19 19 19 18 17 16 16 16 16 15 18 19 20 17 15 15 16 16 16 15 15 15 15 15 17 18 18 18 17 16 16 18 20 22 23 23 23 23 24 24 24 24 24 24 24 23 22 21 20 20 20 20 20 21 21 21 21 20 20 19 19 19 18 16 16 17 19 20 21 20 20 20 21 20 21 20 20 21 22 22 23
22 21 22 21 21 20 19 19 19 18 17 17 16 16 15 15 16 17 17 16 16 15 15 15 15 16 16 16 16 17 18 18 17 17 16 16 17 19 21 23 24 23 23 23 23 23 23 24 25 25 26 25 24 23 21 21 21 21 21 21 21 21 21 20 20 20 20 19 18 18 19 21 22 23 23 22 22 21 21 21 21 21 21 21 22 23
23 22 22 21 21 21 20 19 19 19 18 18 17 17 16 15 15 15 14 15 15 15 15 15 15 16 17 17 17 18 18 18 17 17 17 17 17 18 19 21 22 22 22 22 22 22 22 21 21 22 23 26 27 26 23 23 22 22 21 21 20 20 20 20 20 20 21 21 21 20 20 22 23 24 24 23 23 22 22 21 21 21 20 20 21 22